Theta_e
314 315 317 318 318 318 319 320 321 321 321 322 323 324 325 325 326 327 327 327 327 328 328 328 328 328 329 329 330 330 330 330 330 330 330 330 330 330 330 330 330 330 330 329 329 329 329 329 329 328 328 328 327 326 326 325 325 326 326 325 325 324 324 324 324 323 322 322 321 320 320 320 319 318 317 316 314 312 307 302 298 296 294 294 293 293
314 314 315 316 316 316 316 317 318 318 318 319 320 321 323 323 324 324 325 326 326 326 327 327 328 328 328 328 329 330 330 330 330 330 329 330 330 330 330 330 330 330 330 329 328 328 328 329 329 328 328 327 326 325 325 325 325 325 326 325 324 324 323 322 322 322 321 320 320 320 320 319 318 317 316 314 311 306 301 298 295 294 293 293 293 293
312 313 313 314 314 314 315 315 316 316 317 317 318 320 321 321 321 321 321 322 323 324 325 326 327 328 328 328 328 329 329 330 330 330 329 329 330 329 329 329 329 330 330 329 328 328 328 329 329 328 327 326 325 324 324 325 325 325 325 325 324 323 322 321 320 319 319 318 319 319 319 318 317 315 313 309 305 300 297 295 294 294 293 293 293 293
310 311 312 313 313 313 313 314 314 315 316 316 318 319 320 319 318 317 318 319 320 321 322 324 325 326 326 327 328 329 329 330 330 330 329 329 329 329 329 329 329 330 330 330 329 328 328 328 328 327 326 325 324 323 324 324 325 325 324 324 324 323 322 320 319 318 317 317 317 317 317 316 314 312 308 304 300 297 295 294 294 293 293 293 293 293
310 310 311 312 312 312 313 313 314 314 314 315 316 317 317 316 316 316 317 317 318 318 319 320 321 322 323 324 325 327 328 329 329 330 330 329 329 329 329 329 329 330 330 329 328 327 327 327 327 326 325 324 323 323 323 324 324 324 324 324 323 322 321 320 318 317 316 316 315 314 314 312 310 307 303 300 297 295 294 294 293 293 293 293 293 293
309 310 311 311 311 311 312 313 313 313 314 314 315 315 314 314 314 315 315 315 315 315 316 316 317 318 319 320 322 324 326 327 328 329 329 330 330 329 329 329 329 329 329 328 328 327 327 326 326 325 324 323 322 322 322 322 323 323 323 323 323 322 321 320 318 317 317 316 314 312 311 309 307 304 301 299 296 294 293 293 293 293 293 293 293 293
309 310 310 311 311 312 312 312 312 313 313 313 313 313 313 313 313 313 313 313 313 313 314 315 315 316 316 317 319 321 323 324 325 326 327 328 329 329 329 329 329 329 328 327 327 326 326 325 325 323 322 322 321 321 321 321 322 323 323 322 322 321 320 319 318 317 316 314 312 310 309 308 306 304 301 297 295 293 292 293 293 293 293 293 293 293
309 309 309 310 310 311 311 311 311 311 312 312 312 312 312 311 311 311 311 311 311 311 312 312 313 313 313 314 315 317 318 319 320 321 322 324 325 326 327 327 327 327 326 326 325 325 324 323 322 321 320 319 319 319 319 320 322 322 322 322 320 320 319 318 317 316 314 313 311 309 308 307 304 301 298 295 293 292 292 292 292 293 293 292 292 293
308 308 308 308 308 309 310 310 310 310 310 311 311 311 310 310 309 309 309 309 308 308 309 309 309 309 309 310 310 311 312 313 314 315 317 318 320 321 322 322 322 322 322 323 323 322 322 320 319 317 317 316 316 316 317 319 321 322 321 320 319 318 317 316 315 314 313 311 309 308 307 304 301 298 295 294 293 292 292 292 292 292 292 291 292 292
307 307 307 307 308 308 308 309 309 309 309 309 309 309 309 309 308 308 307 306 306 306 306 306 306 307 307 308 308 308 308 309 309 310 312 313 314 315 316 316 316 317 317 317 318 318 317 317 316 315 315 315 315 315 315 317 318 319 319 318 317 316 315 314 313 312 311 310 308 306 304 301 298 295 293 292 292 292 292 292 292 291 291 291 291 292
306 306 306 307 307 308 307 307 308 309 309 309 309 308 307 307 307 307 305 304 303 303 303 303 304 304 305 306 306 307 307 307 307 307 308 308 309 310 311 311 312 312 312 312 313 313 314 314 314 314 314 314 314 314 314 314 314 315 316 316 315 314 314 313 312 310 309 307 305 303 300 297 295 293 292 292 292 292 292 292 291 291 290 291 291 291
306 306 306 306 306 306 307 307 308 308 308 308 308 307 306 305 305 305 304 303 302 301 301 301 301 302 302 303 304 305 305 305 305 305 305 305 306 307 307 308 308 308 308 309 309 309 310 311 311 312 312 313 313 312 312 311 311 312 313 314 314 313 312 311 310 308 306 304 301 298 295 294 293 292 292 292 291 291 291 291 291 290 290 291 291 291
305 305 305 305 305 305 305 305 306 306 305 305 305 304 304 304 303 303 303 302 301 301 301 301 300 300 301 301 302 302 303 304 304 304 303 303 303 303 304 305 305 305 306 306 306 307 307 308 308 309 309 310 310 310 310 310 310 311 311 312 312 311 310 308 306 304 301 298 296 294 293 292 292 291 291 291 291 291 291 291 291 290 290 291 291 292
304 305 305 304 304 304 304 304 304 304 304 303 303 303 303 303 303 303 302 302 301 301 301 300 300 300 300 300 300 301 301 302 303 304 303 301 301 301 302 302 303 303 304 304 304 304 305 306 306 307 307 308 308 309 309 309 309 309 309 309 308 307 306 304 301 298 296 294 293 292 292 292 292 292 292 291 291 291 291 291 290 290 291 291 292 292
304 304 304 304 303 303 303 303 303 303 303 303 303 303 304 304 303 303 303 302 302 302 302 301 300 299 298 298 298 299 300 300 301 301 301 300 300 300 300 300 301 301 302 301 301 301 302 303 304 304 306 307 308 309 309 309 308 306 305 304 304 303 303 301 298 296 294 294 294 295 296 296 296 295 294 292 291 291 291 290 290 290 291 291 292 294
304 304 303 303 303 303 302 302 302 303 303 303 304 304 304 304 304 304 303 303 303 303 303 302 301 300 298 297 297 297 298 298 298 298 298 298 298 299 300 300 299 299 299 299 299 299 300 301 302 303 304 305 306 307 307 306 305 304 303 302 301 301 301 301 300 299 298 298 299 300 301 301 300 297 294 292 291 290 290 290 290 291 291 292 293 295
303 303 303 303 302 302 302 302 302 303 303 303 304 303 303 303 303 304 304 304 304 304 303 303 302 300 298 297 297 296 296 296 297 297 297 296 296 298 299 299 299 298 298 298 298 298 299 299 300 301 301 302 303 303 303 302 302 301 301 301 301 301 301 302 302 302 301 302 302 303 303 302 299 296 293 291 290 290 290 290 291 291 292 293 295 297
303 303 303 302 302 302 302 302 303 303 303 303 303 303 303 303 303 303 303 303 302 302 301 301 300 299 297 295 295 295 295 295 296 296 295 295 295 296 297 297 297 297 297 297 297 297 297 298 298 298 299 299 300 300 300 299 299 300 300 300 300 301 301 302 302 303 302 302 302 302 302 300 298 295 291 290 290 290 290 291 291 292 293 295 296 298
303 302 302 302 302 302 302 302 303 303 303 303 303 303 303 303 302 302 301 300 300 299 298 297 297 296 294 294 294 294 295 295 295 295 294 294 294 295 295 296 296 296 296 296 296 296 296 296 297 297 297 297 297 297 297 298 298 298 298 299 300 300 301 302 302 302 302 302 301 300 300 298 295 293 290 290 290 290 290 291 292 293 294 296 298 300
302 302 302 302 303 303 302 302 302 303 303 303 303 303 302 302 301 300 299 298 297 297 296 295 294 293 293 293 294 294 295 295 295 294 293 293 293 294 294 295 295 295 295 295 295 296 296 296 296 296 296 296 296 296 296 296 296 297 297 298 299 300 300 300 300 300 299 298 298 297 297 295 293 291 289 290 290 290 291 292 293 294 296 298 299 301
302 302 303 303 303 303 302 302 303 303 303 304 304 303 302 301 299 298 297 296 296 295 294 293 292 292 292 293 294 294 295 295 295 294 293 293 293 293 293 294 294 294 294 294 295 295 295 295 295 295 295 295 295 295 295 295 296 296 297 297 298 299 299 299 298 298 297 296 295 295 294 293 291 290 289 290 290 291 292 293 294 296 297 299 300 301
302 302 303 303 303 303 303 303 303 303 304 304 305 303 302 300 298 296 296 295 295 293 292 292 292 292 293 294 294 294 295 295 294 294 293 292 292 292 292 293 293 293 293 293 294 294 294 294 294 294 294 294 294 294 295 295 295 295 296 297 297 298 297 297 296 295 295 294 294 293 292 291 290 289 289 290 291 292 293 294 296 297 299 300 301 302
302 302 302 303 303 303 303 303 303 304 304 304 305 304 303 301 299 297 297 296 295 293 293 292 293 294 294 294 294 294 295 294 294 294 293 292 291 291 291 291 291 291 291 292 293 293 294 294 294 293 293 293 293 293 294 294 294 295 295 296 296 296 296 295 294 294 294 293 293 292 290 290 289 289 289 290 292 293 294 296 297 298 300 301 301 302
303 303 303 302 302 302 302 303 303 303 303 304 304 304 303 303 302 300 299 298 296 295 294 295 295 295 295 295 295 295 295 295 295 294 292 291 291 291 291 291 290 290 290 291 292 292 292 293 293 293 293 293 293 292 293 293 294 294 295 296 296 296 296 295 295 295 294 293 292 291 289 289 289 289 290 291 293 294 295 297 298 300 301 301 301 301
302 302 302 302 302 302 302 302 302 302 302 303 302 302 302 302 302 301 300 299 298 297 297 296 295 294 294 295 295 295 295 295 296 295 292 291 290 290 290 291 290 290 289 290 291 291 292 292 292 292 292 292 292 292 292 293 293 294 295 295 296 296 296 296 296 296 294 292 291 289 289 289 289 290 291 292 294 295 296 298 299 300 301 301 301 301
302 302 302 302 302 302 302 301 301 301 301 301 301 301 301 301 301 300 299 299 298 298 298 296 294 294 294 294 294 294 295 295 296 295 293 291 290 289 289 290 290 290 290 290 291 291 291 291 291 292 292 292 292 292 292 293 293 294 295 296 296 296 296 296 295 294 292 290 289 288 288 288 289 290 292 293 295 296 297 299 300 300 301 300 300 300
301 301 302 302 302 302 301 301 300 300 300 300 300 300 300 300 300 299 298 298 299 299 297 296 295 294 294 293 293 293 294 295 295 295 294 292 290 289 289 290 290 290 290 290 290 291 291 291 291 291 291 292 292 292 292 293 293 294 295 295 296 296 295 293 292 291 290 289 288 288 288 289 290 291 293 294 296 297 299 300 300 300 300 300 299 300
301 301 302 302 302 301 301 300 300 300 300 300 299 300 300 301 300 299 298 298 299 299 298 297 296 294 292 291 292 293 294 294 294 295 295 293 291 289 289 289 290 290 289 289 289 290 291 291 291 291 291 291 292 293 293 293 294 294 294 294 294 293 292 291 290 289 288 288 288 288 289 290 291 293 294 295 297 298 299 300 300 299 299 299 299 299
301 301 301 301 302 302 301 301 301 301 301 301 301 301 301 301 301 300 300 300 300 299 298 297 295 293 292 291 292 293 294 294 294 295 296 294 290 289 288 289 290 290 290 290 290 290 291 291 291 291 291 291 291 292 293 293 294 294 294 293 292 291 291 290 289 288 288 288 288 288 289 291 292 294 295 296 298 299 299 299 299 299 299 299 299 299
302 301 301 301 302 302 302 302 301 301 301 301 301 301 301 301 301 301 300 300 300 300 298 296 295 294 293 293 293 293 293 294 295 296 297 294 290 288 289 290 291 292 293 292 291 290 290 290 291 291 291 290 291 291 292 292 292 292 292 291 291 290 289 289 288 288 287 288 288 289 291 292 293 295 296 297 298 299 299 299 299 299 299 299 299 300
302 302 302 301 301 301 301 301 301 301 301 301 301 301 301 301 301 301 301 300 301 301 300 298 296 295 296 296 295 294 293 294 295 296 297 295 291 289 290 291 293 295 296 295 293 291 290 289 290 291 291 290 290 290 290 291 291 290 290 290 290 289 289 288 288 288 288 288 289 291 292 293 295 296 297 298 299 299 299 299 299 299 299 299 300 300
302 301 301 301 301 301 301 301 301 301 301 301 301 301 301 301 301 301 301 300 301 301 301 300 298 297 298 298 297 295 294 295 296 296 297 296 293 292 293 293 294 295 296 296 295 294 292 289 289 290 290 290 290 290 290 290 290 290 289 289 289 288 288 288 288 288 288 289 291 292 294 295 296 297 298 299 299 299 299 299 299 299 299 300 300 300
301 301 301 301 301 301 301 301 301 301 301 301 301 301 301 301 301 301 300 300 300 300 301 300 300 299 298 298 298 297 297 297 297 297 297 297 295 294 293 294 294 294 295 295 295 295 292 290 288 288 289 289 290 290 290 290 290 289 289 289 288 288 288 288 288 289 290 291 292 293 295 296 297 298 299 299 299 299 299 299 299 299 300 300 300 300
301 301 301 301 301 301 301 301 301 301 301 301 301 301 301 301 300 300 300 300 300 300 300 300 300 300 299 299 298 297 298 298 298 298 298 297 297 296 294 294 294 294 294 293 294 293 292 290 288 288 288 288 289 290 290 289 289 289 289 289 288 288 287 288 288 289 290 292 293 294 295 296 297 298 299 299 299 299 299 299 299 299 300 300 300 300
301 301 301 301 301 301 301 301 301 301 301 300 300 300 300 300 300 300 300 300 300 300 300 300 300 299 299 299 299 299 299 298 298 298 298 298 298 298 295 294 294 294 294 294 294 293 290 289 288 288 287 287 288 289 289 289 289 289 289 288 288 288 288 288 289 290 291 292 293 295 296 297 298 298 299 299 299 299 299 299 299 300 300 300 300 300
301 301 301 301 301 301 301 301 301 301 300 300 300 300 300 300 300 300 300 300 300 300 300 300 300 300 299 299 300 300 300 300 299 299 298 298 298 298 296 295 295 295 295 294 294 292 290 289 288 288 288 288 288 288 289 289 289 289 289 288 288 288 288 289 289 290 291 293 294 295 296 297 298 298 299 299 298 298 299 299 299 299 300 300 300 300
301 301 301 301 301 301 301 300 300 300 300 300 300 300 300 300 300 300 299 299 300 300 300 300 300 300 300 300 300 300 300 300 299 299 299 298 298 298 298 297 296 296 296 295 294 293 291 290 289 288 289 288 288 288 288 288 289 289 289 289 289 289 288 289 290 291 292 293 294 295 296 297 298 298 298 298 298 298 299 299 299 299 299 299 299 299
300 301 301 301 301 301 301 300 300 300 300 300 299 299 299 299 300 299 299 299 299 299 299 299 300 300 300 300 300 300 300 300 299 299 299 299 298 298 298 298 297 296 296 296 296 295 293 291 290 289 289 288 288 288 288 288 289 290 290 290 289 289 289 289 291 292 293 294 295 296 297 297 298 298 298 298 298 298 299 299 299 299 299 299 299 299
300 301 301 301 301 301 300 300 300 300 300 300 299 299 299 299 299 299 299 299 299 299 299 299 299 299 299 299 299 299 300 299 299 299 298 298 298 298 297 298 297 297 296 295 296 296 295 294 292 291 289 288 288 288 289 289 289 290 290 289 289 289 289 291 292 293 294 294 295 296 297 297 297 297 298 298 298 298 299 299 299 299 299 299 299 299
300 300 301 301 301 300 300 300 300 300 300 300 300 299 299 299 298 298 298 298 299 299 299 299 299 299 299 299 299 299 299 299 298 298 298 297 297 297 297 297 297 297 296 295 295 295 295 295 294 292 291 289 288 288 289 289 290 290 290 290 289 290 290 291 293 294 294 295 296 296 297 297 297 297 297 298 298 299 299 299 299 299 299 299 299 299
301 301 301 301 301 300 300 300 300 300 300 300 299 299 299 298 298 298 297 298 298 299 299 299 299 298 298 298 298 298 298 298 298 297 297 296 296 296 296 295 295 296 296 295 294 294 295 294 294 293 292 291 290 289 289 290 290 290 290 290 290 290 290 292 293 294 295 295 296 296 296 297 297 297 298 298 298 299 299 299 299 299 299 299 299 299
301 301 301 301 300 300 300 300 300 300 300 299 299 298 298 298 298 297 297 297 298 298 298 298 298 298 298 298 298 298 297 297 297 296 296 295 295 295 295 295 294 295 295 295 294 294 294 294 294 293 292 291 291 290 289 290 290 290 290 290 290 291 291 292 294 294 295 295 296 296 296 297 297 297 298 298 298 298 298 298 298 298 298 298 298 298
301 301 301 300 300 300 300 300 300 300 299 299 298 298 298 297 297 297 297 297 297 297 297 297 297 297 297 297 296 296 296 296 296 295 295 294 294 294 293 294 294 294 294 294 294 294 294 294 294 294 294 293 292 291 290 289 290 290 290 290 291 291 292 292 293 295 295 295 296 296 296 297 297 297 297 297 297 298 298 298 298 298 298 298 298 298
300 300 300 300 300 300 300 300 299 299 299 298 298 297 297 297 297 296 296 296 296 296 296 296 296 296 296 295 295 294 294 295 295 294 294 294 294 293 293 293 293 293 293 293 294 294 294 293 293 293 293 293 292 291 290 290 290 290 290 290 290 291 292 293 293 294 295 295 296 296 297 297 297 297 297 297 297 297 297 297 297 297 297 297 297 297
298 298 298 298 298 298 298 298 298 297 297 297 296 296 296 296 296 296 296 296 296 296 296 295 295 295 294 293 293 293 293 293 293 293 293 293 293 293 293 293 293 293 293 293 293 293 294 293 293 293 292 292 292 291 290 290 289 290 290 290 290 291 292 293 293 294 295 295 296 296 296 296 297 297 297 297 297 297 297 297 297 297 297 297 297 297
297 297 297 297 297 297 297 297 296 296 296 296 296 295 295 295 296 296 295 295 295 295 295 295 295 295 293 292 292 292 292 292 292 292 292 292 292 292 292 292 292 292 292 292 292 293 293 294 294 293 292 291 290 290 290 290 290 290 290 290 290 291 292 293 294 295 295 295 296 296 296 296 297 297 297 297 296 296 296 296 296 297 297 297 297 297
296 296 297 297 296 296 296 295 295 295 295 295 295 295 295 295 295 295 295 295 295 294 294 294 294 294 293 292 291 291 291 291 291 291 291 291 292 292 292 292 292 292 292 292 292 292 292 293 293 293 292 291 290 289 289 290 290 290 290 290 290 291 292 294 294 295 295 295 295 296 296 296 297 297 297 296 296 296 296 296 296 296 296 296 296 297
294 296 296 296 296 296 295 295 295 295 295 295 295 294 294 294 294 294 294 294 294 294 294 293 293 293 292 291 291 291 291 291 290 290 291 291 291 291 291 291 291 291 291 291 292 292 292 292 291 291 291 291 290 289 289 289 290 290 290 290 290 291 293 294 294 295 295 295 295 295 296 296 296 296 296 296 296 295 295 295 296 296 296 296 296 296
293 294 295 295 295 295 295 294 294 294 294 294 294 294 294 293 293 293 293 293 293 293 293 293 292 292 291 290 290 290 290 290 290 290 290 290 290 291 291 291 291 291 290 291 291 291 291 290 290 290 290 291 290 289 289 289 290 290 290 290 291 292 293 294 294 295 295 295 295 295 296 296 296 296 296 295 295 295 295 295 295 295 296 296 296 296
293 293 293 294 294 294 294 294 294 294 294 293 293 293 293 293 293 293 293 293 293 293 293 293 292 291 290 290 289 289 289 289 289 289 289 289 290 290 290 290 290 290 290 289 289 289 289 289 289 289 290 290 290 290 290 290 290 290 290 290 291 292 293 294 294 295 295 295 295 295 296 296 296 296 296 295 295 295 295 295 295 295 295 295 296 296
292 292 292 293 293 293 293 293 293 293 293 293 293 293 292 292 292 292 292 292 292 292 292 292 292 291 290 290 289 289 289 289 289 288 288 289 289 290 290 290 290 289 289 289 289 289 289 289 289 289 289 289 289 290 290 290 290 290 290 290 291 292 293 294 294 295 295 295 295 295 295 295 295 295 295 295 294 294 294 294 295 295 295 295 295 296
Wind_Speed
22 23 24 24 24 24 24 23 22 22 21 20 20 19 17 17 16 15 14 13 12 10 9 8 7 5 3 2 3 5 7 11 15 19 21 21 20 21 22 25 28 31 33 33 34 37 41 42 41 40 39 39 38 38 38 38 37 35 33 31 30 28 27 26 26 25 24 24 23 22 21 18 15 12 11 10 9 9 9 8 6 5 3 2 2 3
23 23 24 25 25 24 23 23 24 23 23 22 22 21 19 20 19 18 17 15 14 13 12 11 9 6 4 2 2 3 5 8 13 17 21 22 23 23 23 23 25 27 29 32 33 35 38 41 41 39 37 37 37 38 38 38 37 36 34 32 30 28 26 26 26 25 24 24 24 22 19 16 13 11 10 9 9 9 8 6 5 3 2 1 2 3
21 22 23 24 25 24 22 23 24 24 25 25 24 23 22 23 24 24 23 21 19 17 16 14 12 9 7 4 3 3 4 6 9 13 18 21 22 23 23 23 23 24 26 30 34 36 38 42 42 40 37 36 36 37 38 38 37 36 34 32 30 27 26 26 25 25 24 24 23 21 18 14 12 10 9 8 8 7 6 5 3 2 1 1 2 3
19 19 20 21 23 23 22 22 22 24 25 26 26 26 26 27 28 28 27 26 25 23 21 19 16 14 12 9 5 3 4 5 7 10 13 16 19 21 21 21 21 22 24 29 34 38 41 44 44 41 37 36 37 38 38 38 37 35 33 31 28 26 25 25 25 24 24 22 20 18 15 12 10 9 8 8 7 7 5 4 3 1 0 1 2 3
18 18 19 19 20 21 22 22 22 24 25 27 28 29 29 30 31 30 30 29 29 28 27 25 23 21 19 16 11 6 3 4 6 8 9 12 15 17 19 20 20 22 24 30 36 41 43 45 45 42 39 38 38 38 39 38 37 35 32 29 27 25 24 25 24 24 22 20 18 15 13 11 9 8 8 7 7 6 5 4 2 1 1 2 3 4
18 19 19 19 19 19 21 22 22 23 25 27 29 31 32 32 32 32 32 31 31 31 31 31 29 28 26 23 18 13 8 5 4 6 8 10 12 14 17 19 20 23 26 34 40 44 44 45 44 42 40 40 40 39 38 37 35 33 31 28 26 25 25 25 25 23 21 18 16 14 12 10 9 8 7 6 6 5 4 3 2 1 1 2 4 4
18 20 21 20 20 21 22 22 22 23 23 24 27 29 31 32 33 33 32 32 32 32 32 33 33 32 31 29 25 21 17 13 9 6 6 8 11 14 17 21 23 26 32 39 43 45 44 43 43 42 41 42 41 40 38 36 34 32 29 27 27 27 27 26 24 21 19 16 15 13 12 10 8 7 6 6 5 4 4 3 2 1 2 3 4 3
16 19 21 20 20 20 22 23 23 22 21 21 22 24 26 29 31 32 33 32 32 31 31 33 34 35 35 34 32 30 28 26 23 20 16 13 12 15 19 24 28 33 38 42 44 44 44 43 43 43 43 42 41 40 38 36 33 31 29 28 28 28 27 25 22 19 17 15 14 12 11 9 8 7 6 5 4 4 3 2 1 1 3 4 4 2
15 16 19 19 19 18 18 21 22 22 21 20 19 19 20 22 25 28 31 32 32 32 31 31 32 34 36 36 37 37 37 36 35 33 31 29 27 26 27 29 33 37 40 42 43 44 44 44 43 43 42 41 40 39 38 36 33 31 30 30 29 28 26 23 20 18 16 15 13 12 10 8 7 6 5 5 4 3 2 1 1 3 4 4 3 2
16 16 16 18 19 18 16 17 19 20 20 21 20 20 20 19 19 22 25 28 30 31 32 31 30 30 32 35 37 38 39 40 40 40 39 38 37 37 37 37 37 38 40 41 42 44 44 44 43 42 40 39 38 37 36 35 34 33 32 31 29 27 24 22 20 18 16 14 12 11 9 8 7 6 5 4 4 3 1 1 2 3 3 3 3 3
16 16 16 17 19 20 18 17 17 17 18 20 22 23 23 21 19 18 18 20 24 28 31 31 30 28 29 30 32 35 37 38 39 40 40 40 40 40 40 40 40 40 40 41 41 42 42 42 41 40 38 37 36 35 34 34 34 33 32 30 28 25 23 21 19 17 15 14 12 11 9 8 7 6 5 4 3 2 0 1 2 3 3 3 3 4
14 14 15 15 16 18 18 18 18 19 19 19 19 19 21 21 20 19 17 16 19 23 27 30 31 30 29 28 28 30 32 34 34 35 36 37 38 39 39 39 39 39 39 40 39 39 39 39 38 37 36 35 35 35 34 33 32 31 30 28 26 24 22 20 18 17 15 13 12 11 9 8 7 6 5 4 2 1 1 2 3 3 3 3 4 4
14 14 14 15 16 16 16 17 18 19 20 18 15 14 14 17 19 20 19 18 19 21 24 28 30 31 30 28 27 27 29 30 31 32 33 33 33 33 34 35 36 36 37 37 37 36 35 35 35 35 35 35 35 34 33 31 30 28 27 26 24 23 21 20 18 16 15 14 12 11 9 8 7 5 4 3 2 1 2 3 3 3 3 4 4 5
15 15 14 14 14 15 15 15 15 15 16 16 15 14 14 15 18 20 20 19 19 21 24 27 28 29 29 29 27 26 26 28 30 31 31 30 30 30 31 32 32 33 34 34 33 32 32 32 32 32 32 32 32 31 30 28 26 25 25 24 23 22 21 20 18 17 15 14 12 11 9 8 6 5 4 3 2 3 3 3 3 3 4 4 5 6
14 13 12 11 12 13 14 15 14 14 15 15 16 16 16 17 18 18 18 16 16 19 23 25 26 27 27 27 26 25 24 26 28 30 30 29 28 28 30 31 31 32 32 32 30 29 30 31 31 30 30 29 28 27 26 25 24 23 23 23 23 22 21 20 19 17 15 14 12 10 9 7 6 4 3 3 3 3 3 3 3 3 4 4 5 6
14 13 10 9 10 12 14 14 14 14 15 16 16 17 17 16 16 16 15 13 12 14 16 16 17 18 20 23 24 24 23 24 27 29 30 28 26 27 29 30 31 31 31 31 29 28 28 28 29 28 27 26 25 25 24 23 23 23 22 22 22 22 21 20 18 16 14 12 10 9 8 6 5 3 2 3 3 3 3 3 3 3 4 5 6 7
15 14 12 10 11 12 14 15 15 15 15 15 16 17 17 15 15 15 14 12 11 11 11 11 7 5 8 14 19 22 22 21 23 27 29 27 26 26 28 30 31 31 30 29 28 27 26 26 26 25 24 23 23 23 23 22 22 22 22 21 21 20 19 18 16 14 12 10 9 8 7 6 4 1 2 3 3 3 2 3 3 4 5 6 7 8
15 14 13 12 11 12 14 15 14 14 14 14 14 15 15 15 15 15 15 15 13 12 11 10 7 4 3 5 11 16 21 21 22 25 28 27 26 26 27 29 30 30 29 28 27 26 25 24 24 23 22 21 21 21 21 21 21 21 20 20 19 19 18 16 14 13 11 9 8 7 7 5 3 1 4 3 3 2 2 3 3 4 5 7 8 8
15 16 15 13 12 13 14 14 14 13 13 12 12 13 14 15 15 16 17 16 15 14 13 12 11 9 8 7 10 15 20 21 23 25 25 25 25 25 27 28 29 30 30 28 26 25 24 23 22 21 20 20 20 20 20 19 19 19 19 19 18 17 16 15 13 12 10 9 8 7 6 4 1 3 4 3 2 2 2 3 4 5 6 7 8 9
16 17 16 14 13 13 14 13 12 11 10 9 10 12 14 15 16 17 17 17 16 17 16 15 13 12 12 13 14 16 19 22 24 25 24 23 23 23 25 26 28 29 29 27 25 24 23 22 21 20 19 18 18 18 18 18 18 18 18 17 17 16 15 14 13 11 10 9 8 6 4 2 3 4 3 2 1 2 3 4 5 6 7 8 8 9
18 18 17 15 13 12 12 11 10 8 7 7 8 11 13 14 15 16 16 17 18 19 18 17 15 14 16 16 15 16 19 21 21 20 19 20 21 21 22 24 25 26 27 26 24 23 22 21 20 19 17 16 16 16 16 16 16 16 16 16 16 15 14 13 12 11 10 8 7 4 3 3 4 3 2 1 1 2 4 5 6 7 8 8 8 9
19 18 17 16 14 12 10 9 8 6 5 4 6 10 12 13 14 15 16 18 19 19 19 18 17 18 19 18 16 17 19 21 20 18 16 15 16 18 19 21 23 24 25 24 23 22 21 20 19 17 16 15 15 15 15 14 15 15 15 15 15 14 13 12 11 10 9 7 5 4 3 4 3 2 0 1 2 3 5 6 7 8 8 8 8 8
21 19 18 17 16 13 11 10 8 7 5 4 4 7 9 11 14 16 18 20 22 23 23 22 21 20 20 19 18 18 19 20 20 19 15 10 11 15 17 19 21 22 22 22 21 21 21 20 19 16 15 14 13 14 14 14 14 14 14 14 14 13 13 12 11 9 8 6 4 4 4 3 2 0 1 2 3 4 6 7 7 8 8 8 8 8
21 20 20 19 18 16 14 12 11 9 7 6 6 6 7 10 13 17 19 21 24 25 24 23 21 20 19 18 17 17 17 17 18 17 14 10 11 14 16 19 20 21 20 20 20 20 20 20 19 17 15 13 12 12 12 13 13 13 13 13 13 12 12 11 11 10 9 7 5 4 3 2 1 1 1 2 3 5 6 7 7 8 8 8 8 8
21 20 20 20 19 18 17 15 13 11 9 9 9 10 11 12 13 15 17 19 21 22 21 20 18 15 15 15 14 13 13 15 18 20 17 12 11 14 15 18 19 19 19 18 18 19 19 19 19 19 17 15 12 10 10 11 11 11 11 11 11 11 11 11 11 10 9 7 5 4 2 2 1 1 2 3 4 5 6 7 7 7 8 8 8 7
20 20 20 20 19 19 18 16 14 13 13 13 13 14 14 14 15 16 18 18 19 19 18 15 12 10 11 12 12 11 11 14 19 22 20 14 12 13 14 17 19 19 18 17 16 17 17 17 17 17 16 16 14 12 10 10 10 10 10 11 11 11 11 11 10 9 7 6 4 3 2 2 2 1 2 3 4 5 6 6 7 7 7 7 7 7
20 20 20 19 19 19 18 16 15 14 14 14 14 13 12 12 14 15 16 15 15 15 14 11 7 7 8 9 9 10 11 14 18 21 22 19 14 11 13 16 18 18 18 16 15 14 14 14 14 14 14 14 15 14 13 12 11 11 11 11 11 11 11 10 9 7 6 4 3 3 2 2 1 1 2 3 4 5 5 6 6 6 7 7 6 6
20 20 20 19 19 18 17 16 14 13 12 11 11 10 9 7 8 11 12 12 12 12 12 9 6 4 4 5 6 8 12 14 17 19 20 18 13 11 14 16 17 18 18 16 14 12 12 11 11 11 12 12 13 13 13 13 13 13 12 12 12 11 10 9 7 6 4 3 3 3 2 2 1 1 2 3 4 4 5 5 5 5 5 5 5 4
21 20 20 19 19 18 17 15 14 12 10 9 8 8 9 8 5 7 10 10 10 10 11 10 8 6 6 7 8 9 10 12 15 16 15 13 12 13 16 16 17 17 16 13 11 10 9 9 8 8 9 10 11 11 12 12 12 12 12 12 11 10 9 7 6 5 4 3 3 3 2 1 0 1 2 3 4 4 4 4 4 4 4 3 3 3
21 21 21 20 19 18 17 16 15 13 12 11 10 10 11 11 7 5 7 7 7 8 11 11 11 11 10 9 7 5 5 9 12 13 12 10 10 13 17 17 16 15 11 7 5 5 6 5 5 6 7 8 9 10 11 11 11 10 10 10 9 8 7 6 5 4 4 4 4 3 2 1 0 1 2 3 3 3 3 3 3 2 2 2 2 2
20 21 21 20 19 18 17 16 15 14 14 13 12 12 12 12 9 5 4 5 4 4 9 11 12 12 10 6 3 1 2 9 13 12 9 7 10 15 18 16 14 12 8 4 2 2 2 2 3 5 6 7 8 9 10 10 10 10 9 8 7 7 6 5 5 4 4 4 4 3 2 1 0 1 2 3 3 3 2 2 2 2 2 2 1 1
19 19 19 19 19 18 17 17 16 15 14 14 13 13 13 12 10 7 3 2 2 1 3 8 12 12 8 4 2 2 3 10 14 13 9 7 12 17 18 16 14 12 10 6 5 4 2 2 4 6 7 7 7 8 9 10 10 9 9 8 7 6 5 5 5 5 5 4 4 3 2 1 0 1 2 2 2 2 2 1 1 2 2 1 2 2
17 18 18 18 18 18 17 17 16 15 14 14 13 13 13 12 11 8 6 4 3 4 3 3 8 10 7 4 3 3 5 11 15 15 11 8 11 15 17 16 14 12 10 8 6 5 4 3 4 6 8 9 9 9 9 10 10 9 9 8 7 6 5 5 5 5 5 4 4 3 2 1 1 1 2 2 2 2 1 1 1 2 2 2 2 3
16 16 17 17 17 17 17 16 16 15 14 13 13 12 12 11 10 9 8 6 5 5 5 2 3 6 5 3 3 3 4 10 14 15 13 10 9 13 18 17 15 13 11 8 6 5 5 6 7 7 8 10 11 10 10 10 10 10 9 8 7 6 5 5 5 5 5 4 3 2 2 1 1 2 2 2 2 2 1 1 0 1 1 2 3 4
14 15 16 16 16 16 16 16 16 15 14 13 12 12 11 11 10 9 8 7 6 5 5 4 2 2 2 1 3 2 3 8 12 14 14 12 10 11 17 18 17 16 13 10 7 6 4 7 9 9 8 9 10 11 11 11 10 10 10 9 8 6 6 5 5 5 4 4 3 2 2 2 2 2 2 2 2 2 2 2 1 1 1 2 3 4
13 13 14 15 15 16 16 16 16 15 14 13 12 11 11 10 9 8 7 6 6 5 5 4 3 2 1 2 3 4 1 5 9 12 13 13 11 10 13 16 18 17 15 12 10 8 7 8 10 11 9 7 6 8 10 12 12 11 11 10 9 8 6 5 4 4 3 3 2 2 2 2 3 3 3 2 2 2 2 2 2 2 3 3 4 4
11 12 12 13 14 14 14 14 14 14 14 13 12 11 10 9 8 7 6 5 5 5 4 4 3 3 3 3 4 4 4 2 5 8 11 12 11 10 9 12 15 17 16 14 12 11 11 10 10 10 8 6 4 5 9 12 13 12 11 10 10 8 7 5 4 4 3 2 2 1 2 3 3 3 3 2 2 1 1 2 2 3 3 4 5 6
10 10 11 11 12 12 13 12 12 13 13 12 11 11 10 8 7 6 5 5 4 4 4 4 3 3 3 3 4 4 5 4 2 5 8 10 11 10 8 8 12 15 16 14 13 12 12 11 8 7 6 5 5 7 10 13 13 12 11 11 10 8 7 6 5 4 3 2 2 2 2 3 3 3 3 2 1 1 1 2 2 3 3 4 5 6
9 9 9 10 11 11 11 11 10 11 11 11 11 11 10 9 7 5 5 4 4 4 3 3 3 3 3 3 3 4 4 4 2 2 5 7 9 10 8 8 9 12 14 13 12 11 12 11 10 8 7 6 7 9 13 14 13 12 12 11 10 8 7 6 5 4 3 2 2 2 2 3 3 2 2 1 1 1 2 3 3 3 3 3 4 5
7 8 8 9 10 11 11 10 10 9 9 9 10 10 10 9 7 5 4 4 4 4 3 3 2 2 2 2 3 3 4 4 3 1 3 5 7 8 9 8 8 9 11 12 12 11 10 11 12 12 12 10 9 11 13 14 14 13 12 10 8 7 8 7 6 4 3 2 2 2 2 2 2 2 2 2 3 3 3 4 5 4 4 4 5 6
7 7 8 8 9 9 9 9 9 8 7 7 8 8 8 8 6 5 4 4 4 3 3 2 1 1 1 2 3 3 3 3 2 1 2 4 6 7 8 8 7 8 10 12 12 11 10 10 11 12 12 12 12 13 14 15 14 13 12 9 8 9 9 7 6 5 4 3 2 2 2 2 3 3 4 4 4 4 5 5 6 6 5 5 5 7
6 6 6 7 7 7 7 8 8 8 7 7 6 6 6 6 5 5 4 3 3 3 3 2 1 0 1 2 3 3 3 3 2 1 1 3 5 6 7 7 6 6 7 10 12 11 10 10 11 11 12 13 13 13 13 14 15 14 12 10 10 10 8 7 6 5 4 4 3 3 3 4 4 4 4 5 5 5 5 6 6 6 6 6 7 8
5 5 5 5 5 6 6 6 7 7 7 6 5 5 5 5 5 4 4 3 2 2 2 1 0 0 2 3 4 4 4 3 3 2 2 2 3 5 5 5 5 4 5 8 11 12 10 10 10 11 12 13 14 15 14 15 15 14 12 11 10 9 6 7 7 6 5 5 4 5 5 5 5 5 5 6 7 7 6 6 6 7 7 8 8 9
5 5 4 4 4 5 6 6 6 6 6 6 5 4 4 4 4 4 4 3 2 2 1 0 0 1 2 4 5 4 4 4 3 3 3 3 3 3 3 4 4 3 3 7 11 12 11 10 9 10 11 12 14 15 16 16 16 15 13 12 10 9 7 9 9 9 7 7 6 6 6 6 6 7 7 8 8 8 7 7 8 8 8 8 9 9
6 6 6 6 6 7 7 7 6 6 6 5 5 4 4 4 4 4 4 3 3 2 1 1 1 2 5 5 5 5 5 5 4 4 4 3 3 3 2 3 3 3 4 6 8 10 11 11 10 10 10 12 13 15 16 17 17 16 14 12 10 9 9 10 11 10 10 9 8 8 7 7 8 8 9 9 9 9 9 9 9 9 9 9 9 10
7 6 6 7 7 7 7 7 6 6 5 5 5 5 5 4 4 4 4 4 3 3 3 2 2 3 5 6 6 6 6 5 5 4 4 4 4 3 3 3 3 4 4 5 7 8 9 10 10 11 12 13 13 14 16 17 17 16 15 12 10 9 10 11 11 11 11 10 10 9 9 8 9 10 11 12 11 11 10 10 10 10 10 10 10 11
6 6 6 7 7 7 7 6 6 5 5 5 5 5 5 5 4 4 4 4 4 4 4 3 3 4 6 7 8 8 8 8 7 6 5 5 5 5 4 4 4 4 4 5 6 7 8 8 9 10 13 14 13 13 15 17 17 17 15 12 10 10 11 12 12 12 11 11 11 10 10 10 10 11 12 13 13 13 12 11 11 11 11 11 11 12
6 5 5 5 6 6 6 6 6 6 6 6 6 5 5 5 5 4 4 4 4 5 5 4 4 5 6 7 8 8 8 9 8 8 7 7 6 6 6 5 5 5 5 5 5 6 7 7 8 9 11 12 13 13 15 16 17 16 15 13 11 11 12 13 13 13 12 12 11 11 11 11 12 13 14 14 15 14 14 13 12 12 11 12 12 12
5 5 4 4 5 5 5 5 6 6 7 7 6 6 5 5 5 4 4 4 5 5 6 5 5 6 7 8 8 8 8 8 9 9 9 9 8 8 7 7 7 6 6 6 6 6 7 8 8 8 8 10 12 15 17 17 17 16 14 12 11 12 13 14 14 13 13 12 12 12 12 11 12 13 14 16 16 15 15 14 14 13 12 12 12 12
4 4 4 5 5 5 5 6 6 6 7 7 6 6 5 5 5 5 5 5 5 6 7 6 6 6 8 9 9 9 9 9 10 10 10 10 10 10 9 9 9 9 9 9 9 9 9 8 7 6 6 7 10 14 17 18 17 16 13 12 11 12 14 14 14 14 13 13 13 12 12 12 12 13 15 16 16 15 15 15 15 14 13 12 13 13
3 3 4 4 5 6 6 6 6 7 7 7 7 6 6 6 6 5 5 5 6 7 7 7 6 7 8 9 10 10 10 10 11 11 12 11 11 11 11 11 11 12 11 10 8 8 8 7 6 5 5 5 8 12 16 18 17 15 13 11 11 12 14 15 15 14 13 13 13 13 13 13 14 14 15 15 15 14 14 15 15 15 14 13 13 14
Wind_Direction
31 36 43 49 50 49 48 54 59 60 60 62 64 67 70 71 72 70 65 60 55 51 50 51 53 58 72 111 150 169 179 185 187 187 189 191 194 197 197 197 199 202 205 204 195 185 180 180 179 178 178 179 178 175 172 169 168 169 172 173 174 175 177 180 183 185 188 189 186 182 177 174 174 179 189 200 211 219 223 223 220 217 219 247 291 309
29 36 41 46 48 46 44 51 57 59 60 61 63 66 69 70 69 68 66 63 59 55 53 52 54 60 74 104 147 171 181 185 189 191 193 196 199 202 205 207 208 209 208 204 197 188 179 176 176 176 177 177 175 172 170 167 166 168 170 171 172 173 175 178 180 182 183 182 179 175 173 173 176 184 193 203 210 214 213 211 207 207 220 276 311 322
22 28 33 41 45 44 42 46 53 60 64 65 67 69 70 69 67 64 63 63 62 60 58 56 55 56 64 85 125 166 185 188 190 192 195 198 202 206 208 211 213 213 208 203 197 188 177 173 173 175 176 174 171 169 168 166 166 167 168 168 170 172 174 175 176 175 175 173 171 170 170 172 177 185 192 200 203 203 201 198 195 195 237 317 332 334
21 22 25 34 41 43 44 46 51 59 66 69 71 73 73 70 67 65 64 64 64 63 62 61 59 58 58 61 78 128 176 191 195 195 196 198 202 205 208 211 214 215 211 203 195 185 175 170 170 172 174 172 169 166 165 164 165 165 165 166 168 171 174 174 172 170 168 166 166 166 167 170 173 179 185 191 193 192 190 185 178 174 317 345 342 335
22 23 27 32 37 40 45 49 54 60 66 70 72 73 73 71 69 68 68 67 65 63 63 63 62 61 60 58 62 77 128 182 200 205 204 202 203 205 207 210 213 214 209 199 189 179 171 168 168 170 171 169 167 165 163 163 162 162 163 165 168 173 176 175 172 168 165 163 163 163 162 162 165 171 178 184 187 185 177 167 159 143 31 350 333 322
22 26 33 37 39 41 45 49 54 59 64 68 70 72 72 72 71 70 68 67 65 64 64 63 64 64 63 63 65 71 87 121 176 204 214 214 211 209 210 212 212 208 197 185 177 170 166 165 166 167 167 166 164 163 163 162 161 161 163 166 172 177 179 177 173 168 163 160 159 158 155 155 159 167 175 181 181 174 162 153 144 118 19 331 313 307
23 30 36 40 43 45 48 48 52 57 61 64 67 69 70 72 72 71 70 69 67 66 66 66 65 65 65 65 68 72 78 86 99 127 170 198 207 207 205 204 201 192 179 170 165 163 161 161 162 163 161 161 160 160 161 161 161 161 164 169 175 179 179 174 169 163 158 156 155 153 150 151 157 166 172 174 168 158 147 139 126 75 333 309 299 296
22 28 33 35 39 43 46 47 50 54 58 61 63 65 66 68 70 70 71 72 71 69 67 66 65 65 64 65 68 71 74 77 81 87 97 115 141 161 170 172 171 166 162 159 157 156 155 156 155 155 154 154 154 155 157 158 160 163 168 173 176 174 170 164 158 154 152 151 150 147 145 148 154 161 163 160 151 138 128 115 78 333 308 296 291 292
24 24 27 30 33 35 38 41 46 51 56 59 61 61 62 63 66 67 68 68 68 68 68 66 64 64 64 66 69 71 73 75 77 80 86 93 103 114 126 133 138 141 143 145 146 147 147 147 146 146 147 147 148 150 152 155 159 165 170 172 169 163 157 152 149 148 148 147 145 141 138 141 147 152 150 143 132 118 99 60 338 308 298 295 298 303
29 26 26 30 34 36 35 31 38 48 56 59 62 63 62 60 62 64 63 62 63 67 69 68 65 63 64 67 70 72 74 76 78 80 83 87 93 99 105 110 114 119 124 128 131 134 137 139 140 141 142 143 145 147 149 152 157 162 165 163 158 152 148 146 145 145 144 141 137 133 132 136 142 143 137 126 115 102 74 341 304 297 299 306 313 319
27 28 28 29 33 38 38 34 36 45 56 60 61 61 61 60 61 64 63 59 60 64 66 67 67 65 64 65 69 72 75 76 78 80 82 84 88 93 97 101 104 107 111 114 118 123 128 132 135 138 140 143 145 147 148 150 152 154 154 152 148 145 144 143 143 141 137 132 128 127 130 134 137 133 124 116 110 101 34 301 300 306 316 324 327 327
25 26 29 30 31 32 34 35 40 46 51 52 52 50 47 52 61 68 69 64 62 63 65 67 68 68 66 65 67 72 76 76 77 78 80 82 86 90 93 96 98 100 104 107 111 116 121 126 130 134 139 143 146 147 147 147 146 146 145 143 142 141 141 139 136 132 127 124 123 126 130 131 128 122 113 110 110 92 335 320 320 325 330 332 331 328
27 28 31 33 32 30 29 30 34 38 40 41 42 41 38 47 61 70 73 70 68 69 71 70 68 68 70 70 71 73 77 79 80 81 80 79 81 85 90 92 94 97 101 103 106 110 116 121 126 131 136 139 142 144 144 143 142 141 140 139 138 137 134 130 126 122 120 120 122 125 126 122 114 104 94 84 58 7 339 330 329 330 333 333 330 328
25 26 30 32 31 29 28 30 33 35 36 38 43 47 51 58 66 72 74 71 71 74 76 74 70 67 68 69 72 75 78 82 85 86 83 79 79 83 89 92 94 97 100 101 102 106 113 119 123 127 132 135 138 139 139 139 139 138 136 135 133 130 126 122 120 119 120 122 124 123 116 106 93 76 56 32 360 337 326 323 326 330 332 330 328 329
23 25 30 31 30 27 27 31 36 39 42 46 52 59 64 65 67 69 71 70 71 75 76 75 71 67 64 64 68 73 78 83 86 86 84 82 83 86 90 92 94 97 100 99 100 104 112 117 121 124 129 132 135 136 137 137 136 134 131 129 127 125 123 122 122 124 126 127 126 121 112 100 83 61 27 347 320 312 312 317 324 327 329 327 328 332
26 28 31 31 29 28 28 33 38 43 47 54 60 62 60 56 58 63 65 66 68 70 71 73 70 64 59 62 67 72 75 80 84 85 83 81 83 89 93 94 93 94 96 96 98 102 108 113 117 121 125 128 132 135 135 134 132 130 128 126 125 125 125 126 128 129 131 130 126 119 110 99 85 62 356 301 291 296 306 317 323 325 326 326 331 335
29 29 30 32 30 28 30 38 43 47 53 58 61 62 60 58 58 60 59 59 59 59 61 68 71 62 53 51 58 67 74 78 83 84 83 78 79 87 94 95 93 92 94 94 96 100 104 107 110 114 117 122 126 129 129 129 128 128 127 127 127 128 128 129 130 130 129 125 119 110 102 94 85 67 275 272 277 291 306 316 321 323 325 330 335 339
30 29 29 30 29 29 33 38 43 49 55 57 60 63 66 66 66 65 62 60 59 58 58 61 63 69 69 37 43 59 76 81 85 85 82 77 76 82 91 94 94 93 93 93 95 98 101 102 103 106 110 115 119 122 123 125 127 128 129 130 130 130 130 129 128 126 122 116 108 100 94 90 92 234 255 261 272 291 307 315 320 324 328 334 339 341
31 29 27 26 27 31 37 40 43 47 50 55 62 66 66 67 69 68 65 64 64 66 68 67 68 71 73 59 59 71 82 87 88 86 81 76 75 79 85 89 91 91 91 91 93 95 97 98 99 102 106 111 114 117 121 124 127 129 131 131 131 130 128 126 123 118 113 106 99 94 91 95 162 240 249 257 272 296 311 319 322 327 333 338 341 341
34 32 29 27 29 34 38 41 46 50 54 64 74 75 71 71 70 69 68 70 72 75 78 78 75 74 77 77 81 86 90 92 90 86 82 77 75 77 82 85 87 87 88 91 94 96 97 98 100 102 104 108 112 116 119 123 126 129 130 130 129 126 124 120 116 111 106 102 98 97 104 152 222 238 246 255 284 310 321 325 328 332 336 339 339 339
39 34 33 33 36 40 39 40 45 54 63 75 83 84 81 79 76 74 76 79 80 81 81 81 79 81 86 87 90 94 96 95 92 88 85 79 75 76 82 86 87 88 88 91 95 98 98 99 99 100 102 105 110 114 118 121 124 125 126 125 123 120 117 114 111 108 106 105 107 116 151 208 227 235 243 275 322 331 331 330 332 334 336 337 337 336
44 38 35 33 36 40 40 38 40 43 46 59 85 90 88 88 87 86 89 90 88 86 86 85 88 92 97 97 99 102 103 100 97 95 92 81 72 72 82 87 89 89 88 92 98 101 101 99 98 98 99 104 109 112 114 116 117 118 117 116 115 113 112 111 109 109 110 113 122 149 196 219 226 228 249 352 346 339 334 332 332 333 334 335 335 335
48 43 39 36 35 33 31 28 25 21 17 23 70 97 104 105 104 104 103 101 99 97 96 96 98 101 102 103 105 107 107 106 104 101 95 86 74 75 84 90 90 87 86 93 100 105 105 103 101 100 99 103 108 112 112 112 113 113 114 115 116 117 117 118 119 120 122 128 145 181 211 219 214 170 45 10 350 339 334 331 330 330 331 333 334 336
52 49 46 43 40 37 34 30 26 23 24 37 60 83 100 110 113 113 113 110 107 104 104 104 102 99 99 102 104 105 108 110 110 107 99 90 83 85 89 92 89 84 85 92 101 106 107 106 106 105 101 98 104 111 114 116 118 119 121 123 126 127 129 130 131 132 132 139 161 194 209 200 152 86 38 2 344 336 331 327 326 327 329 333 336 338
56 53 51 48 46 44 42 40 41 43 51 63 78 90 100 106 111 114 114 112 110 109 108 103 94 86 87 93 95 97 107 115 117 113 105 98 90 90 95 97 94 88 87 94 101 105 105 105 105 106 104 99 96 99 108 117 123 127 129 131 131 133 133 133 133 133 136 147 170 192 189 158 114 73 22 353 339 331 326 323 323 326 330 334 337 339
60 58 56 54 51 49 48 50 55 61 69 77 86 94 101 107 110 111 111 111 113 112 107 95 83 77 80 83 82 87 105 119 122 120 114 110 100 95 100 104 103 99 97 100 105 106 105 103 104 106 106 105 103 101 101 113 122 128 133 134 133 133 131 129 129 133 141 157 173 177 157 130 102 58 5 344 332 325 320 319 322 328 333 335 336 336
62 61 60 58 56 54 54 57 63 70 76 80 84 87 93 102 108 111 112 116 120 117 107 100 93 85 78 72 73 87 109 122 124 123 121 116 109 102 107 111 110 107 104 103 105 107 105 102 103 105 108 111 113 114 114 119 123 127 131 133 134 132 131 131 134 141 150 160 161 151 133 118 93 33 350 336 326 321 318 320 326 331 334 333 331 328
61 60 60 59 59 58 59 61 64 69 72 75 75 70 63 72 101 115 118 124 126 119 109 109 109 96 74 61 74 99 118 126 128 128 127 119 111 109 120 121 118 113 104 99 100 105 105 103 104 107 110 115 120 123 126 129 131 132 133 134 135 135 136 139 144 149 151 148 139 130 122 113 85 5 341 330 324 321 321 324 328 331 330 325 318 313
59 58 58 57 58 58 59 60 60 58 57 56 51 42 33 33 72 122 125 132 130 120 110 109 108 104 97 92 94 106 122 132 137 137 135 120 112 118 129 127 124 117 106 96 90 89 90 96 103 109 113 119 124 128 130 133 134 135 135 136 137 138 141 145 149 148 142 136 130 128 126 124 79 344 332 329 325 324 325 327 328 325 319 311 301 294
56 56 55 55 54 54 54 55 53 51 47 43 38 34 31 33 49 102 126 138 137 126 120 117 116 115 113 106 96 94 125 151 153 149 142 122 118 129 136 133 129 123 112 100 80 67 67 82 101 114 121 126 129 131 133 134 134 135 135 136 137 139 143 148 148 142 136 133 131 132 134 135 101 333 331 329 329 329 328 325 317 307 297 289 278 266
52 53 52 51 51 50 50 50 49 49 48 46 44 41 38 36 42 68 117 138 138 135 136 133 131 130 128 122 104 66 189 179 170 162 157 133 134 144 146 144 140 136 130 121 110 99 74 92 121 138 140 138 137 137 137 136 136 136 136 138 140 142 145 145 142 136 132 131 132 134 135 133 60 333 331 335 336 336 330 312 287 267 259 250 228 204
50 50 50 49 48 47 47 46 47 48 49 50 50 48 45 42 41 45 68 97 68 58 138 146 146 144 139 126 114 139 185 182 177 175 176 151 147 152 155 155 155 152 145 139 129 123 125 136 153 157 156 152 147 144 142 140 139 139 139 141 142 144 145 141 136 131 128 127 127 127 123 113 46 350 344 346 349 347 334 290 248 233 225 202 168 146
51 51 49 47 45 44 43 42 43 43 45 48 50 50 49 47 45 43 41 40 32 26 33 149 158 157 151 124 100 116 162 175 177 180 185 171 157 158 164 165 165 164 159 152 141 130 126 138 153 160 161 159 156 152 148 145 143 142 142 142 143 144 143 138 132 129 127 126 123 119 110 94 56 23 13 12 10 6 355 298 233 220 209 168 131 118
51 51 50 48 44 41 39 38 38 38 39 42 45 47 48 47 47 45 42 36 33 35 42 61 160 169 166 125 84 100 152 173 178 181 185 188 175 167 172 173 173 172 168 160 149 137 123 135 143 149 156 160 160 156 154 152 149 148 147 145 143 143 141 135 132 131 130 127 122 113 99 83 65 51 42 37 32 27 24 30 107 200 191 149 115 105
48 48 48 46 43 39 36 34 33 33 33 35 38 42 45 45 46 45 44 40 37 38 46 56 77 154 177 84 43 51 158 176 178 181 185 194 192 180 178 180 181 179 174 167 157 142 121 136 143 145 147 155 159 161 160 158 155 153 152 150 146 142 138 133 133 133 133 130 123 111 91 74 65 58 54 50 48 45 49 53 63 84 114 117 105 90
46 45 44 43 42 39 35 32 29 28 27 28 31 35 40 43 44 45 46 45 41 37 39 47 53 55 51 30 20 19 70 171 178 183 187 196 200 195 185 187 189 188 182 175 166 150 132 136 144 147 145 145 156 168 168 164 161 158 156 154 151 147 140 135 134 138 137 134 126 109 81 66 61 58 54 56 58 62 62 62 65 75 83 89 85 76
43 42 40 38 37 36 34 31 29 26 22 22 23 27 33 38 41 43 45 47 45 41 36 34 34 35 31 29 29 35 54 118 173 188 194 199 204 207 202 198 199 199 195 186 173 158 143 138 143 150 152 150 158 173 174 169 164 160 157 155 152 150 146 141 142 146 147 144 130 97 72 60 54 51 49 52 63 74 75 72 72 77 81 82 78 73
37 35 33 32 31 31 31 29 27 24 21 18 17 19 23 29 34 39 42 45 46 44 40 33 29 25 24 24 30 41 53 70 139 192 203 206 210 216 226 218 211 209 208 203 193 175 156 147 148 158 169 175 174 172 173 170 167 164 161 157 154 150 149 150 155 158 160 156 131 93 66 54 50 46 44 47 57 86 103 91 86 84 87 86 83 78
30 27 25 25 26 26 26 25 24 22 19 16 14 13 14 17 23 30 39 44 47 48 44 39 34 31 30 29 32 41 51 61 81 171 208 215 218 223 232 233 225 218 215 213 207 194 176 166 164 168 171 170 170 172 173 173 172 169 164 160 157 153 153 157 163 168 166 157 128 93 74 57 51 50 63 75 105 132 136 115 104 100 100 100 97 89
20 18 16 19 23 25 24 24 22 18 15 13 12 11 10 8 10 15 26 37 45 48 48 46 42 42 45 46 48 53 58 65 75 115 201 218 225 230 233 239 240 232 221 214 209 202 191 182 179 178 176 168 164 168 173 175 176 172 166 160 158 160 161 164 167 169 162 148 126 102 94 85 91 114 136 138 137 133 125 118 112 109 107 104 99 94
10 10 10 15 21 24 23 23 19 12 7 7 5 3 3 2 1 359 4 21 31 35 39 36 36 45 65 72 70 70 69 72 82 115 190 219 229 235 237 240 246 244 230 216 210 205 199 193 188 184 182 175 169 167 170 174 176 174 169 163 161 162 162 163 166 165 160 150 136 126 130 142 152 156 150 140 128 119 115 112 109 105 102 92 83 79
354 357 1 7 13 15 14 11 6 360 357 356 351 349 353 355 350 344 343 357 16 23 23 13 5 34 105 106 102 97 92 90 95 116 181 221 233 239 243 245 252 253 239 220 210 204 203 203 200 194 188 181 172 167 169 174 177 176 173 168 162 158 157 161 164 164 163 160 152 149 158 165 166 160 145 130 119 115 114 110 102 93 85 77 70 66
321 326 341 353 358 356 349 343 342 343 345 343 339 337 342 345 345 340 333 332 343 358 10 15 16 134 133 127 125 125 125 123 125 135 163 203 229 241 247 252 258 260 245 224 210 203 205 208 209 206 202 196 183 172 168 172 175 175 173 168 163 159 155 161 164 165 166 166 162 163 167 165 157 144 130 120 113 109 106 99 91 83 75 70 68 67
311 310 315 319 321 321 318 319 325 332 335 332 326 320 321 329 334 333 326 320 317 319 320 339 143 155 145 126 126 133 140 146 151 155 162 178 203 227 243 249 253 254 243 229 216 207 205 206 206 207 206 200 189 179 173 172 172 172 170 169 169 169 166 162 161 163 165 165 166 165 160 153 143 133 125 117 110 104 99 94 87 81 75 71 70 71
343 331 324 321 320 318 316 318 322 327 327 323 313 300 295 305 317 320 312 304 292 275 247 227 184 147 135 133 138 143 144 149 155 163 167 173 180 191 213 226 230 229 225 226 224 219 212 204 199 198 199 194 187 180 173 171 170 170 169 170 174 177 172 165 163 163 163 161 160 157 152 145 139 132 123 113 105 100 95 90 86 83 79 76 75 75
13 3 355 348 341 333 326 323 322 320 317 313 302 290 285 289 298 303 301 292 273 249 237 237 208 164 146 146 151 154 150 149 154 162 166 167 168 173 182 198 211 216 216 217 221 224 223 215 203 192 184 180 178 177 175 172 169 167 168 170 174 175 168 164 163 163 161 157 153 151 149 145 139 128 114 106 100 95 91 87 83 81 79 78 77 75
20 18 12 2 352 342 333 326 319 312 307 302 296 289 282 279 281 283 284 279 263 242 230 230 214 182 166 163 163 162 157 155 157 162 164 163 165 167 173 182 195 206 212 212 212 213 215 215 208 195 181 170 165 166 172 173 170 167 166 169 172 171 167 164 163 162 160 154 150 147 146 142 134 124 113 106 99 94 90 86 83 81 80 79 78 76
12 13 13 4 354 342 331 321 315 310 303 298 294 290 283 274 268 265 264 263 254 239 226 216 201 181 170 168 169 169 166 162 161 164 166 168 168 170 174 179 184 190 195 200 200 198 193 191 189 188 184 176 166 161 165 169 169 167 166 168 171 171 168 166 164 161 157 152 148 146 144 137 127 118 113 106 99 93 89 87 85 83 81 79 78 76
12 359 356 354 349 337 322 315 312 309 301 295 288 282 277 269 258 251 250 250 244 235 225 213 195 177 166 164 168 173 174 171 169 169 170 170 171 171 172 174 175 173 169 169 169 169 169 167 169 175 182 187 178 168 166 167 167 166 166 168 171 173 171 169 165 160 154 150 146 143 140 134 128 122 115 106 98 92 89 87 86 85 82 80 77 76
23 4 351 344 337 326 314 308 304 300 295 290 281 273 266 258 250 244 241 241 237 231 226 220 204 183 169 167 169 172 173 173 172 171 171 173 173 171 168 168 165 157 147 143 140 139 137 133 139 151 168 187 185 176 169 166 165 164 165 169 174 177 175 171 166 159 153 147 143 140 136 132 130 125 117 107 100 95 91 87 86 85 84 81 79 78
23 11 354 341 331 321 311 302 295 290 288 286 280 271 260 249 242 237 234 231 228 226 225 225 215 195 178 173 173 175 179 178 174 171 172 174 173 170 166 166 162 152 141 136 132 128 120 110 105 107 120 160 182 181 174 168 164 162 164 170 177 181 178 173 166 159 152 145 140 137 133 129 126 121 115 109 103 97 91 86 85 85 85 83 82 81